Regional Weather Roundup
Issued by NWS Newport/Morehead, NC

Current Version | Previous Version | Graphics & Text | Print | Product List | Glossary On
Versions: 1 2 3 4 5 6 7 8 9 10 11 12 13 14 15 16 17 18 19 20 21 22 23 24 25 26 27 28 29 30 31 32 33 34 35 36 37 38 39 40 41 42 43 44 45 46 47 48 49 50
000
ASUS42 KMHX 181224
RWRMHX
WEATHER ROUNDUP FOR EASTERN NORTH CAROLINA
NATIONAL WEATHER SERVICE NEWPORT/MOREHEAD CITY NC
800 AM EDT SAT APR 18 2015

NOTE: "FAIR" INDICATES FEW OR NO CLOUDS BELOW 12,000 FEET
WITH NO SIGNIFICANT WEATHER AND/OR OBSTRUCTIONS TO VISIBILITY

NCZ015>017-031-032-045>047-102-103-181300-
NORTH COAST

CITY           SKY/WX    TMP DP  RH WIND       PRES   REMARKS
EDENTON        CLOUDY    65  64  94 CALM      30.00S
ELIZABETH CITY CLOUDY    67  64  90 NW3       30.00R
KITTY HAWK     CLOUDY    65  65 100 CALM      29.99S
MANTEO         CLOUDY    65  64  93 NW3       30.00S

$$

NCZ045>047-081-094-103-104-181300-
CENTRAL COAST

CITY           SKY/WX    TMP DP  RH WIND       PRES   REMARKS
FRISCO         CLOUDY    60  58  92 CALM      30.00R
SWANQUARTER      N/A     66 N/A N/A CALM      29.97R

$$

NCZ095-097-098-100-101-181300-
SOUTHERN COAST

CITY           SKY/WX    TMP DP  RH WIND       PRES   REMARKS
BEAUFORT       CLOUDY    66  65  96 NE5       29.99S
CEDAR ISLAND     N/A     66 N/A N/A NE5       30.03S
JACKSONVILLE   RAIN      66  65  96 N5        30.00R FOG
PINEY ISLAND   LGT RAIN N/A N/A N/A N5        29.99S
WILMINGTON     CLOUDY    66  65  96 N5        29.99R


$$

NCZ011>013-027>030-043-044-078>080-089-090>093-098-181300-
COASTAL PLAIN

CITY           SKY/WX    TMP DP  RH WIND       PRES   REMARKS
AHOSKIE        CLOUDY    63  62  97 CALM      30.01S
CLINTON        CLOUDY    66  66 100 CALM      30.00S
ELIZABETHTOWN  RAIN      66  66 100 CALM      30.01R
GOLDSBORO      CLOUDY    66  65  94 CALM      29.98S
GREENVILLE     RAIN      64  64 100 CALM      30.02S
HAVELOCK       CLOUDY    67  64  90 CALM      30.00R
KENANSVILLE    CLOUDY    65  64  96 CALM      30.01R
KINSTON        CLOUDY    64  64 100 N3        30.01R FOG
NEW BERN       CLOUDY    67  65  93 CALM      30.01R
RICHLANDS      CLOUDY    64  61  88 CALM      30.01R
ROCKY MOUNT    PTSUNNY   64  63  96 SW3       30.01F FOG
WASHINGTON     LGT RAIN  64  64  97 N3        30.00S
WHITEVILLE     RAIN      65  64  96 CALM      30.00R

$$

AMZ130-135-150-152-154-156-158-170-250-252-270-ANZ085-086-088-633-658-670-181300-
MARINE OBSERVATIONS

STATION/POSITION TIME  TEMP    WIND        PRES    WAVE   SWELL
                       AIR SEA DIR/SP/G            HT/PER HT/PER
                 (UTC) (F)     (DEG/KT/KT) (MB)    (FT/S) (FT/S)
CHESAPEAKE LIGHT 1200   63     280/  9/  9 1016.3
64 E VA BEACH    1150   59 54  270/  6/  8 1015.1    3/ 8   3/ 8
DUCK             1200   66 53  280/  7/  8 1014.7
2 E DUCK         1111      54                N/A     3/ 7   2/12
10 NE DUCK       NOT AVBL
OREGON INLET     1200   64 60     CALM     1015.8
HATTERAS CG      1200   66 67  130/  2/  2 1015.3
DIAMOND BUOY     1150   70 75  350/  8/  8 1015.6    5/ 7   5/ 7
CAPE LOOKOUT     1200   67      50/  5/  6 1015.2
BEAUFORT LAB     1200   65 62   10/  2/  4 1014.6
27 SE WRIGHTSVLE 1200   68 73   40/ 10/ 12   N/A
5 SE WRIGHTSVLE  1200   64 64   20/  6/  8 1015.2
225 S CAPE HAT   1150   72 73  230/  6/  8 1014.6    6/ 8   5/ 8
41 SE CHARLESTON 1150   70 75  350/  8/  8 1014.4    4/ 9   3/ 9

$$


USA.gov is the U.S. government's official web portal to all federal, state and local government web resources and services.